Tracking 20232 objects as of 20-Jan-2020
HD Live streaming from Space Station
objects crossing your sky now

COSMOS 2236 (GLONASS)

Track COSMOS 2236 (GLONASS) now!
COSMOS 2236 (GLONASS) is classified as:


NORAD ID: 22513
Int'l Code: 1993-010B
Perigee: 19,125.4 km
Apogee: 19,148.3 km
Inclination: 64.1 °
Period: 675.7 minutes
Semi major axis: 25507 km
RCS: 3.1089 m2 (large)
Launch date: February 17, 1993
Source: Commonwealth of Independent States (former USSR) (CIS)
Launch site: TYURATAM MISSILE AND SPACE COMPLEX (TTMTR)
aabbcc
Your satellite tracking list
Your tracking list is empty




NASA's NSSDC Master Catalog

Two Line Element Set (TLE):
1 22513U 93010B   20014.96622670  .00000060  00000-0  00000+0 0  9996
2 22513  64.0809 150.7895 0004502 100.6766 258.3582  2.13104427209394
Source of the keplerian elements: AFSPC